Weather History for KLAW - December, 2013

Change the Weather History Date:

Sunday, December 29, 2013

  Actual Average Record
Temperature  
Mean Temperature 33 °F -  
Max Temperature 42 °F 47 °F 81 °F (1951)
Min Temperature 21 °F 27 °F 4 °F (1983)
Degree Days  
Heating Degree Days 32    
Moisture  
Dew Point 24 °F    
Average Humidity 80    
Maximum Humidity 100    
Minimum Humidity 51    
Precipitation  
Precipitation 0.00 in - - ()
Sea Level Pressure  
Sea Level Pressure 30.11 in    
Wind  
Wind Speed 8 mph (North)    
Max Wind Speed 34 mph    
Max Gust Speed 45 mph    
Visibility 7 miles    
Events Fog    
Averages and records for this station are not official NWS values.
T = Trace of Precipitation, MM = Missing Value Source: NWS Daily Summary

Daily Weather History Graph

Daily Weather History Graph

Search for Another Location

Airport or City:

Trip Planner

Search our weather history database for the weather conditions in past years. The results will help you decide how hot, cold, wet, or windy it might be!

Date:

Astronomy

Dec. 29, 2013 Rise Set
Actual Time 7:39 AM CST 5:32 PM CST
Civil Twilight 7:11 AM CST 5:59 PM CST
Nautical Twilight 6:40 AM CST 6:31 PM CST
Astronomical Twilight 6:09 AM CST 7:02 PM CST
Moon 4:28 AM CST (12/29) 3:08 PM CST (12/29)
Length of Visible Light 10h 48m
Length of Day
9h 52m
Waning Crescent, 11% of the Moon is Illuminated
Dec 29
Waning Crescent
Jan 1
New
Jan 7
First Quarter
Jan 15
Full
Jan 23
Last Quarter

Hourly Weather History & Observations

Time (CST) Temp. Windchill Dew Point Humidity Pressure Visibility Wind Dir Wind Speed Gust Speed Precip Events Conditions
12:07 AM 32.0 °F - 32.0 °F 100% 29.93 in 0.8 mi Calm Calm - N/A   Clear
12:22 AM 33.8 °F - 32.0 °F 93% 29.92 in 0.2 mi Calm Calm - N/A Fog Fog
12:34 AM 32.0 °F - 32.0 °F 100% 29.92 in 0.2 mi Calm Calm - N/A Fog Fog
12:53 AM 32.0 °F 28.7 °F 32.0 °F 100% 29.92 in 0.2 mi ENE 3.5 mph - N/A Fog Fog
1:45 AM 30.2 °F - 30.2 °F 100% 29.91 in 0.5 mi Calm Calm - N/A Fog Light Freezing Fog
1:53 AM 30.0 °F - 28.9 °F 96% 29.92 in 0.5 mi Calm Calm - N/A Fog Light Freezing Fog
2:00 AM 30.2 °F - 28.4 °F 93% 29.91 in 0.2 mi Calm Calm - N/A Fog Light Freezing Fog
2:22 AM 28.4 °F 23.3 °F 28.4 °F 100% 29.92 in 0.5 mi NNE 4.6 mph - N/A Fog Light Freezing Fog
2:41 AM 28.4 °F - 28.4 °F 100% 29.93 in 0.8 mi Calm Calm - N/A   Clear
2:45 AM 28.4 °F - 28.4 °F 100% 29.93 in 2.0 mi Calm Calm - N/A   Clear
2:53 AM 28.9 °F - 28.0 °F 96% 29.94 in 3.0 mi Calm Calm - N/A   Clear
3:36 AM 28.4 °F - 26.6 °F 93% 29.94 in 5.0 mi Calm Calm - N/A   Partly Cloudy
3:40 AM 28.4 °F - 26.6 °F 93% 29.94 in 1.8 mi Calm Calm - N/A   Partly Cloudy
3:51 AM 28.4 °F - 26.6 °F 93% 29.95 in 3.0 mi Calm Calm - N/A   Scattered Clouds
3:53 AM 28.0 °F - 27.0 °F 96% 29.97 in 4.0 mi Calm Calm - N/A   Scattered Clouds
4:01 AM 28.4 °F 17.5 °F 26.6 °F 93% 29.98 in 2.5 mi NNW 13.8 mph 18.4 mph N/A   Mostly Cloudy
4:13 AM 35.6 °F 29.9 °F 35.6 °F 100% 29.99 in 8.0 mi North 6.9 mph - N/A   Mostly Cloudy
4:51 AM 42.8 °F 37.0 °F 41.0 °F 93% 29.99 in 10.0 mi North 10.4 mph - N/A   Overcast
4:53 AM 42.1 °F 35.7 °F 41.0 °F 96% 29.99 in 10.0 mi North 11.5 mph - N/A   Overcast
5:53 AM 41.0 °F 30.9 °F 37.9 °F 89% 30.04 in 10.0 mi North 24.2 mph 36.8 mph N/A   Overcast
6:53 AM 35.1 °F 22.2 °F 30.9 °F 85% 30.09 in 9.0 mi North 27.6 mph 38.0 mph N/A   Overcast
7:53 AM 30.9 °F 15.3 °F 26.1 °F 82% 30.14 in 10.0 mi North 34.5 mph 41.4 mph N/A   Overcast
8:20 AM 30.2 °F 14.9 °F 24.8 °F 80% 30.13 in 10.0 mi NNE 31.1 mph 44.9 mph N/A   Overcast
8:53 AM 28.9 °F 12.5 °F 21.9 °F 75% 30.19 in 10.0 mi North 34.5 mph 41.4 mph N/A   Overcast
9:53 AM 28.0 °F 11.8 °F 19.0 °F 69% 30.23 in 10.0 mi North 32.2 mph 44.9 mph N/A   Overcast
10:53 AM 28.0 °F 13.0 °F 18.0 °F 66% 30.27 in 10.0 mi North 26.5 mph 33.4 mph N/A   Overcast
11:53 AM 28.0 °F 13.6 °F 17.1 °F 63% 30.29 in 10.0 mi North 24.2 mph 32.2 mph N/A   Overcast
12:53 PM 28.9 °F 14.3 °F 17.1 °F 61% 30.26 in 10.0 mi North 26.5 mph 34.5 mph N/A   Overcast
1:09 PM 28.4 °F 13.3 °F 17.6 °F 64% 30.22 in 10.0 mi North 27.6 mph 32.2 mph N/A   Overcast
1:53 PM 28.9 °F 14.8 °F 17.1 °F 61% 30.26 in 10.0 mi North 24.2 mph 32.2 mph N/A   Overcast
2:53 PM 30.0 °F 17.9 °F 17.1 °F 59% 30.28 in 10.0 mi North 18.4 mph 28.8 mph N/A   Overcast
3:53 PM 28.9 °F 16.1 °F 17.1 °F 61% 30.30 in 10.0 mi North 19.6 mph 26.5 mph N/A   Overcast
4:53 PM 28.0 °F 15.7 °F 16.0 °F 61% 30.30 in 10.0 mi North 17.3 mph - N/A   Overcast
5:53 PM 28.0 °F 16.5 °F 15.1 °F 58% 30.31 in 10.0 mi North 15.0 mph 23.0 mph N/A   Overcast
6:53 PM 27.0 °F 14.7 °F 14.0 °F 58% 30.33 in 10.0 mi North 16.1 mph 23.0 mph N/A   Overcast
7:53 PM 28.0 °F 18.6 °F 14.0 °F 56% 30.35 in 10.0 mi North 10.4 mph - N/A   Overcast
8:53 PM 27.0 °F 14.7 °F 12.0 °F 53% 30.35 in 10.0 mi North 16.1 mph - N/A   Overcast
9:39 PM 26.6 °F 14.3 °F 10.4 °F 51% 30.32 in 10.0 mi North 16.1 mph - N/A   Scattered Clouds
9:53 PM 26.1 °F 14.0 °F 12.0 °F 55% 30.35 in 10.0 mi North 15.0 mph - N/A   Clear
10:53 PM 24.1 °F 14.4 °F 12.0 °F 60% 30.37 in 10.0 mi North 9.2 mph - N/A   Clear
11:53 PM 21.9 °F 14.5 °F 10.9 °F 63% 30.36 in 10.0 mi North 5.8 mph - N/A   Clear